Flag for Russia Weather past 2 weeks in Bryansk, Russia

Now
64 °F

Sunny.


Feels Like: 64 °F
Forecast: 55 / 85 °F
Wind: 8 mph from Northeast

Location: Brjansk

Current Time: Jul 25, 2014 at 8:40:54 AM

Latest Report: Jul 25, 2014 at 8:00 AM


Visibility: 10 mi

Pressure: 30.07 "Hg

Humidity: 78%

Dew point: 57 °F

Location of BryanskLocation

Historic Weather in Bryansk — Graph

°F

Bryansk temperature yesterday

Maximum temperature yesterday: 82 °F (at 4:00 PM)
Minimum temperature yesterday: 68 °F (at 9:00 AM)
Average temperature yesterday: 77 °F

Past Weeks' High & Low Weather Summary

 TemperatureHumidityPressure
High90 °F (Jul 16, 4:00 PM)100% (Jul 11, 8:00 AM)30.12 "Hg (Jul 11, 8:00 AM)
Low55 °F (Jul 16, 6:00 AM)22% (Jul 16, 3:00 PM)29.77 "Hg (Jul 10, 3:00 PM)
Average72 °F62%29.98 "Hg
* Reported Jul 10 8:00 AM — Jul 25 7:00 AM, Bryansk, Weather by CustomWeather, © 2014

Note: Actual official high and low records may vary slightly from our data, if they occured in-between our weather recording intervals... More about our weather records

Advertising

Bryansk weather history for previous 24 hours

 ConditionsComfort  
Time TempWeatherWind HumidityBarometerVisibility
7:00 AM
Jul 25
61 °FSunny.3 mph88%30.04 "Hg10 mi
6:00 AM61 °FClear.1 mph88%30.04 "Hg10 mi
5:00 AM61 °FClear.1 mph88%30.04 "Hg10 mi
12:00 AM68 °FClear.3 mph64%30.01 "Hg10 mi
11:00 PM
Jul 24
70 °FClear.6 mph60%30.01 "Hg10 mi
10:00 PM70 °FSunny.8 mph57%29.98 "Hg10 mi
9:00 PM75 °FSunny.6 mph44%29.98 "Hg10 mi
8:00 PM81 °FSunny.3 mph34%29.98 "Hg10 mi
7:00 PM82 °FSunny.8 mph30%29.98 "Hg10 mi
6:00 PM82 °FSunny.3 mph30%29.98 "Hg10 mi
5:00 PM82 °FSunny.6 mph32%30.01 "Hg10 mi
4:00 PM82 °FPassing clouds.3 mph32%30.01 "HgN/A
3:00 PM79 °FPartly sunny.1 mph39%30.01 "HgN/A
2:00 PM79 °FPartly sunny.3 mph37%30.04 "HgN/A
1:00 PM81 °FPartly sunny.1 mph37%30.04 "HgN/A
12:00 PM79 °FSunny.3 mph39%30.04 "Hg10 mi
11:00 AM77 °FSunny.1 mph47%30.04 "Hg10 mi
10:00 AM73 °FSunny.3 mph53%30.04 "Hg10 mi
9:00 AM68 °FSunny.1 mph60%30.04 "Hg10 mi
Weather by CustomWeather, © 2014

See weather overviewHow to use our weather pages